User: anonymous   Login
Location: Passau
(48.5830°N, 13.4830°E)
Time: 07:06:55
(UTC+02:00)
Language:

Explorer 11/Cluster Stage 4 - Orbit

View from above orbital plane
View from above orbital plane
View from above satellite
View from above satellite

Ground track
Ground track

The orbit data is extracted from the following two-line orbital elements,

1   107U 61013A   24141.82815658  .00003417  00000-0  42019-3 0  9998
2   107  28.7930 343.3301 0521686 287.4943  66.9285 14.15226016168369
Epoch (UTC): 20 May 2024 19:52:32
Eccentricity: 0.0521686
inclination: 28.7930°
perigee height: 465 km
apogee height: 1218 km
right ascension of ascending node: 343.3301°
argument of perigee: 287.4943°
revolutions per day: 14.15226016
mean anomaly at epoch: 66.9285°
orbit number at epoch: 16836

The dashed part of the orbit path shows where the satellite is in the earth's shadow,  

DLR